Year,Month,Day,Hour,Minute,Value (Times are PST for temperature in C)
2007,11,14,00,00,1.20
2007,11,14,00,01,1.20
2007,11,14,00,02,1.20
2007,11,14,00,03,1.30
2007,11,14,00,04,1.30
2007,11,14,00,05,1.40
2007,11,14,00,06,1.50
2007,11,14,00,07,1.50
2007,11,14,00,08,1.60
2007,11,14,00,09,1.70
2007,11,14,00,10,1.70
2007,11,14,00,11,1.80
2007,11,14,00,12,1.80
2007,11,14,00,13,1.80
2007,11,14,00,14,1.80
2007,11,14,00,15,1.80
2007,11,14,00,16,1.80
2007,11,14,00,17,1.80
2007,11,14,00,18,1.80
2007,11,14,00,19,1.80
2007,11,14,00,20,1.80
2007,11,14,00,21,1.80
2007,11,14,00,22,1.80
2007,11,14,00,23,1.80
2007,11,14,00,24,1.80
2007,11,14,00,25,1.80
2007,11,14,00,26,1.90
2007,11,14,00,27,1.90
2007,11,14,00,28,1.90
2007,11,14,00,29,2.00
2007,11,14,00,30,2.00
2007,11,14,00,31,2.00
2007,11,14,00,32,2.00
2007,11,14,00,33,2.00
2007,11,14,00,34,2.00
2007,11,14,00,35,1.90
2007,11,14,00,36,1.90
2007,11,14,00,37,1.90
2007,11,14,00,38,1.80
2007,11,14,00,39,1.80
2007,11,14,00,40,1.90
2007,11,14,00,41,1.90
2007,11,14,00,42,1.90
2007,11,14,00,43,2.00
2007,11,14,00,44,2.00
2007,11,14,00,45,2.10
2007,11,14,00,46,2.20
2007,11,14,00,47,2.20
2007,11,14,00,48,2.20
2007,11,14,00,49,2.30
2007,11,14,00,50,2.30
2007,11,14,00,51,2.40
2007,11,14,00,52,2.40
2007,11,14,00,53,2.50
2007,11,14,00,54,2.50
2007,11,14,00,55,2.50
2007,11,14,00,56,2.60
2007,11,14,00,57,2.60
2007,11,14,00,58,2.60
2007,11,14,00,59,2.60
2007,11,14,01,00,2.60
2007,11,14,01,01,2.70
2007,11,14,01,02,2.70
2007,11,14,01,03,2.70
2007,11,14,01,04,2.70
2007,11,14,01,05,2.70
2007,11,14,01,06,2.70
2007,11,14,01,07,2.70
2007,11,14,01,08,2.60
2007,11,14,01,09,2.60
2007,11,14,01,10,2.60
2007,11,14,01,11,2.60
2007,11,14,01,12,2.60
2007,11,14,01,13,2.60
2007,11,14,01,14,2.70
2007,11,14,01,15,2.70
2007,11,14,01,16,2.70
2007,11,14,01,17,2.70
2007,11,14,01,18,2.80
2007,11,14,01,19,2.80
2007,11,14,01,20,2.90
2007,11,14,01,21,2.90
2007,11,14,01,22,2.90
2007,11,14,01,23,3.00
2007,11,14,01,24,3.10
2007,11,14,01,25,3.10
2007,11,14,01,26,3.10
2007,11,14,01,27,3.10
2007,11,14,01,28,3.20
2007,11,14,01,29,3.20
2007,11,14,01,30,3.30
2007,11,14,01,31,3.30
2007,11,14,01,32,3.30
2007,11,14,01,33,3.30
2007,11,14,01,34,3.30
2007,11,14,01,35,3.30
2007,11,14,01,36,3.30
2007,11,14,01,37,3.30
2007,11,14,01,38,3.30
2007,11,14,01,39,3.30
2007,11,14,01,40,3.30
2007,11,14,01,41,3.30
2007,11,14,01,42,3.20
2007,11,14,01,43,3.20
2007,11,14,01,44,3.20
2007,11,14,01,45,3.20
2007,11,14,01,46,3.20
2007,11,14,01,47,3.20
2007,11,14,01,48,3.20
2007,11,14,01,49,3.20
2007,11,14,01,50,3.20
2007,11,14,01,51,3.20
2007,11,14,01,52,3.20
2007,11,14,01,53,3.30
2007,11,14,01,54,3.30
2007,11,14,01,55,3.30
2007,11,14,01,56,3.30
2007,11,14,01,57,3.30
2007,11,14,01,58,3.20
2007,11,14,01,59,3.20
2007,11,14,02,00,3.20
2007,11,14,02,01,3.20
2007,11,14,02,02,3.20
2007,11,14,02,03,3.20
2007,11,14,02,04,3.10
2007,11,14,02,05,3.10
2007,11,14,02,06,3.10
2007,11,14,02,07,3.10
2007,11,14,02,08,3.10
2007,11,14,02,09,3.10
2007,11,14,02,10,3.10
2007,11,14,02,11,3.10
2007,11,14,02,12,3.10
2007,11,14,02,13,3.10
2007,11,14,02,14,3.10
2007,11,14,02,15,3.10
2007,11,14,02,16,3.10
2007,11,14,02,17,3.10
2007,11,14,02,18,3.10
2007,11,14,02,19,3.10
2007,11,14,02,20,3.10
2007,11,14,02,21,3.10
2007,11,14,02,22,3.10
2007,11,14,02,23,3.20
2007,11,14,02,24,3.20
2007,11,14,02,25,3.20
2007,11,14,02,26,3.20
2007,11,14,02,27,3.20
2007,11,14,02,28,3.20
2007,11,14,02,29,3.20
2007,11,14,02,30,3.20
2007,11,14,02,31,3.20
2007,11,14,02,32,3.20
2007,11,14,02,33,3.20
2007,11,14,02,34,3.20
2007,11,14,02,35,3.20
2007,11,14,02,36,3.20
2007,11,14,02,37,3.20
2007,11,14,02,38,3.20
2007,11,14,02,39,3.30
2007,11,14,02,40,3.30
2007,11,14,02,41,3.30
2007,11,14,02,42,3.30
2007,11,14,02,43,3.30
2007,11,14,02,44,3.40
2007,11,14,02,45,3.50
2007,11,14,02,46,3.50
2007,11,14,02,47,3.60
2007,11,14,02,48,3.60
2007,11,14,02,49,3.70
2007,11,14,02,50,3.80
2007,11,14,02,51,3.80
2007,11,14,02,52,3.90
2007,11,14,02,53,4.00
2007,11,14,02,54,4.00
2007,11,14,02,55,4.00
2007,11,14,02,56,4.10
2007,11,14,02,57,4.10
2007,11,14,02,58,4.10
2007,11,14,02,59,4.10
2007,11,14,03,00,4.10
2007,11,14,03,01,4.10
2007,11,14,03,02,4.10
2007,11,14,03,03,4.10
2007,11,14,03,04,4.10
2007,11,14,03,05,4.10
2007,11,14,03,06,4.10
2007,11,14,03,07,4.10
2007,11,14,03,08,4.10
2007,11,14,03,09,4.10
2007,11,14,03,10,4.20
2007,11,14,03,11,4.20
2007,11,14,03,12,4.20
2007,11,14,03,13,4.20
2007,11,14,03,14,4.20
2007,11,14,03,15,4.20
2007,11,14,03,16,4.20
2007,11,14,03,17,4.20
2007,11,14,03,18,4.20
2007,11,14,03,19,4.20
2007,11,14,03,20,4.20
2007,11,14,03,21,4.20
2007,11,14,03,22,4.20
2007,11,14,03,23,4.20
2007,11,14,03,24,4.20
2007,11,14,03,25,4.20
2007,11,14,03,26,4.30
2007,11,14,03,27,4.30
2007,11,14,03,28,4.40
2007,11,14,03,29,4.40
2007,11,14,03,30,4.40
2007,11,14,03,31,4.40
2007,11,14,03,32,4.40
2007,11,14,03,33,4.40
2007,11,14,03,34,4.40
2007,11,14,03,35,4.40
2007,11,14,03,36,4.40
2007,11,14,03,37,4.40
2007,11,14,03,38,4.40
2007,11,14,03,39,4.40
2007,11,14,03,40,4.40
2007,11,14,03,41,4.40
2007,11,14,03,42,4.40
2007,11,14,03,43,4.40
2007,11,14,03,44,4.40
2007,11,14,03,45,4.40
2007,11,14,03,46,4.40
2007,11,14,03,47,4.30
2007,11,14,03,48,4.30
2007,11,14,03,49,4.30
2007,11,14,03,50,4.30
2007,11,14,03,51,4.30
2007,11,14,03,52,4.30
2007,11,14,03,53,4.30
2007,11,14,03,54,4.20
2007,11,14,03,55,4.20
2007,11,14,03,56,4.20
2007,11,14,03,57,4.20
2007,11,14,03,58,4.20
2007,11,14,03,59,4.20
2007,11,14,04,00,4.20
2007,11,14,04,01,4.20
2007,11,14,04,02,4.20
2007,11,14,04,03,4.20
2007,11,14,04,04,4.20
2007,11,14,04,05,4.20
2007,11,14,04,06,4.20
2007,11,14,04,07,4.20
2007,11,14,04,08,4.20
2007,11,14,04,09,4.20
2007,11,14,04,10,4.20
2007,11,14,04,11,4.20
2007,11,14,04,12,4.20
2007,11,14,04,13,4.20
2007,11,14,04,14,4.20
2007,11,14,04,15,4.20
2007,11,14,04,16,4.20
2007,11,14,04,17,4.20
2007,11,14,04,18,4.20
2007,11,14,04,19,4.20
2007,11,14,04,20,4.20
2007,11,14,04,21,4.20
2007,11,14,04,22,4.20
2007,11,14,04,23,4.20
2007,11,14,04,24,4.20
2007,11,14,04,25,4.20
2007,11,14,04,26,4.20
2007,11,14,04,27,4.20
2007,11,14,04,28,4.20
2007,11,14,04,29,4.20
2007,11,14,04,30,4.20
2007,11,14,04,31,4.30
2007,11,14,04,32,4.30
2007,11,14,04,33,4.30
2007,11,14,04,34,4.30
2007,11,14,04,35,4.30
2007,11,14,04,36,4.40
2007,11,14,04,37,4.40
2007,11,14,04,38,4.40
2007,11,14,04,39,4.40
2007,11,14,04,40,4.40
2007,11,14,04,41,4.40
2007,11,14,04,42,4.50
2007,11,14,04,43,4.50
2007,11,14,04,44,4.50
2007,11,14,04,45,4.50
2007,11,14,04,46,4.60
2007,11,14,04,47,4.60
2007,11,14,04,48,4.60
2007,11,14,04,49,4.60
2007,11,14,04,50,4.60
2007,11,14,04,51,4.60
2007,11,14,04,52,4.70
2007,11,14,04,53,4.70
2007,11,14,04,54,4.70
2007,11,14,04,55,4.80
2007,11,14,04,56,4.80
2007,11,14,04,57,4.80
2007,11,14,04,58,4.80
2007,11,14,04,59,4.90
2007,11,14,05,00,4.90
2007,11,14,05,01,4.90
2007,11,14,05,02,4.90
2007,11,14,05,03,4.90
2007,11,14,05,04,4.90
2007,11,14,05,05,4.90
2007,11,14,05,06,4.90
2007,11,14,05,07,4.90
2007,11,14,05,08,4.90
2007,11,14,05,09,4.90
2007,11,14,05,10,4.90
2007,11,14,05,11,4.90
2007,11,14,05,12,4.90
2007,11,14,05,13,4.90
2007,11,14,05,14,4.90
2007,11,14,05,15,4.90
2007,11,14,05,16,4.90
2007,11,14,05,17,4.90
2007,11,14,05,18,4.90
2007,11,14,05,19,4.90
2007,11,14,05,20,4.90
2007,11,14,05,21,4.90
2007,11,14,05,22,4.90
2007,11,14,05,23,5.00
2007,11,14,05,24,5.10
2007,11,14,05,25,5.10
2007,11,14,05,26,5.10
2007,11,14,05,27,5.10
2007,11,14,05,28,5.10
2007,11,14,05,29,5.10
2007,11,14,05,30,5.10
2007,11,14,05,31,5.10
2007,11,14,05,32,5.10
2007,11,14,05,33,5.10
2007,11,14,05,34,5.10
2007,11,14,05,35,5.10
2007,11,14,05,36,5.10
2007,11,14,05,37,5.10
2007,11,14,05,38,5.10
2007,11,14,05,39,5.10
2007,11,14,05,40,5.10
2007,11,14,05,41,5.10
2007,11,14,05,42,5.10
2007,11,14,05,43,5.10
2007,11,14,05,44,5.10
2007,11,14,05,45,5.10
2007,11,14,05,46,5.10
2007,11,14,05,47,5.10
2007,11,14,05,48,5.10
2007,11,14,05,49,5.10
2007,11,14,05,50,5.10
2007,11,14,05,51,5.10
2007,11,14,05,52,5.10
2007,11,14,05,53,5.10
2007,11,14,05,54,5.10
2007,11,14,05,55,5.10
2007,11,14,05,56,5.10
2007,11,14,05,57,5.10
2007,11,14,05,58,5.10
2007,11,14,05,59,5.10
2007,11,14,06,00,5.10
2007,11,14,06,01,5.10
2007,11,14,06,02,5.10
2007,11,14,06,03,5.10
2007,11,14,06,04,5.10
2007,11,14,06,05,5.10
2007,11,14,06,06,5.10
2007,11,14,06,07,5.10
2007,11,14,06,08,5.10
2007,11,14,06,09,5.10
2007,11,14,06,10,5.10
2007,11,14,06,11,5.10
2007,11,14,06,12,5.10
2007,11,14,06,13,5.00
2007,11,14,06,14,4.90
2007,11,14,06,15,4.90
2007,11,14,06,16,4.90
2007,11,14,06,17,4.90
2007,11,14,06,18,4.90
2007,11,14,06,19,4.90
2007,11,14,06,20,4.90
2007,11,14,06,21,4.90
2007,11,14,06,22,4.90
2007,11,14,06,23,4.90
2007,11,14,06,24,4.90
2007,11,14,06,25,4.90
2007,11,14,06,26,4.90
2007,11,14,06,27,4.90
2007,11,14,06,28,4.80
2007,11,14,06,29,4.80
2007,11,14,06,30,4.80
2007,11,14,06,31,4.80
2007,11,14,06,32,4.80
2007,11,14,06,33,4.80
2007,11,14,06,34,4.70
2007,11,14,06,35,4.70
2007,11,14,06,36,4.70
2007,11,14,06,37,4.70
2007,11,14,06,38,4.70
2007,11,14,06,39,4.70
2007,11,14,06,40,4.70
2007,11,14,06,41,4.70
2007,11,14,06,42,4.70
2007,11,14,06,43,4.70
2007,11,14,06,44,4.60
2007,11,14,06,45,4.60
2007,11,14,06,46,4.60
2007,11,14,06,47,4.60
2007,11,14,06,48,4.60
2007,11,14,06,49,4.60
2007,11,14,06,50,4.60
2007,11,14,06,51,4.70
2007,11,14,06,52,4.70
2007,11,14,06,53,4.70
2007,11,14,06,54,4.70
2007,11,14,06,55,4.70
2007,11,14,06,56,4.80
2007,11,14,06,57,4.80
2007,11,14,06,58,4.80
2007,11,14,06,59,4.80
2007,11,14,07,00,4.80
2007,11,14,07,01,4.70
2007,11,14,07,02,4.70
2007,11,14,07,03,4.70
2007,11,14,07,04,4.80
2007,11,14,07,05,4.80
2007,11,14,07,06,4.80
2007,11,14,07,07,4.80
2007,11,14,07,08,4.80
2007,11,14,07,09,4.80
2007,11,14,07,10,4.80
2007,11,14,07,11,4.80
2007,11,14,07,12,4.90
2007,11,14,07,13,4.90
2007,11,14,07,14,4.90
2007,11,14,07,15,4.90
2007,11,14,07,16,4.90
2007,11,14,07,17,4.90
2007,11,14,07,18,4.90
2007,11,14,07,19,4.90
2007,11,14,07,20,4.90
2007,11,14,07,21,4.90
2007,11,14,07,22,4.90
2007,11,14,07,23,4.90
2007,11,14,07,24,4.90
2007,11,14,07,25,4.90
2007,11,14,07,26,4.90
2007,11,14,07,27,4.90
2007,11,14,07,28,4.90
2007,11,14,07,29,4.90
2007,11,14,07,30,4.90
2007,11,14,07,31,5.00
2007,11,14,07,32,5.10
2007,11,14,07,33,5.10
2007,11,14,07,34,5.10
2007,11,14,07,35,5.10
2007,11,14,07,36,5.10
2007,11,14,07,37,5.10
2007,11,14,07,38,5.10
2007,11,14,07,39,5.10
2007,11,14,07,40,5.10
2007,11,14,07,41,5.10
2007,11,14,07,42,5.10
2007,11,14,07,43,5.10
2007,11,14,07,44,5.10
2007,11,14,07,45,5.10
2007,11,14,07,46,5.00
2007,11,14,07,47,4.90
2007,11,14,07,48,4.90
2007,11,14,07,49,5.10
2007,11,14,07,50,5.10
2007,11,14,07,51,5.10
2007,11,14,07,52,5.00
2007,11,14,07,53,4.90
2007,11,14,07,54,5.00
2007,11,14,07,55,5.10
2007,11,14,07,56,5.10
2007,11,14,07,57,5.00
2007,11,14,07,58,4.90
2007,11,14,07,59,4.90
2007,11,14,08,00,5.00
2007,11,14,08,01,5.10
2007,11,14,08,02,5.10
2007,11,14,08,03,5.10
2007,11,14,08,04,5.10
2007,11,14,08,05,5.10
2007,11,14,08,06,5.10
2007,11,14,08,07,5.10
2007,11,14,08,08,5.10
2007,11,14,08,09,5.10
2007,11,14,08,10,5.20
2007,11,14,08,11,5.20
2007,11,14,08,12,5.20
2007,11,14,08,13,5.30
2007,11,14,08,14,5.30
2007,11,14,08,15,5.30
2007,11,14,08,16,5.30
2007,11,14,08,17,5.30
2007,11,14,08,18,5.30
2007,11,14,08,19,5.30
2007,11,14,08,20,5.30
2007,11,14,08,21,5.30
2007,11,14,08,22,5.30
2007,11,14,08,23,5.30
2007,11,14,08,24,5.40
2007,11,14,08,25,5.40
2007,11,14,08,26,5.40
2007,11,14,08,27,5.40
2007,11,14,08,28,5.40
2007,11,14,08,29,5.40
2007,11,14,08,30,5.50
2007,11,14,08,31,5.50
2007,11,14,08,32,5.50
2007,11,14,08,33,5.50
2007,11,14,08,34,5.50
2007,11,14,08,35,5.50
2007,11,14,08,36,5.60
2007,11,14,08,37,5.60
2007,11,14,08,38,5.60
2007,11,14,08,39,5.60
2007,11,14,08,40,5.70
2007,11,14,08,41,5.70
2007,11,14,08,42,5.70
2007,11,14,08,43,5.70
2007,11,14,08,44,5.70
2007,11,14,08,45,5.70
2007,11,14,08,46,5.70
2007,11,14,08,47,5.80
2007,11,14,08,48,5.80
2007,11,14,08,49,5.80
2007,11,14,08,50,5.80
2007,11,14,08,51,5.90
2007,11,14,08,52,5.90
2007,11,14,08,53,5.90
2007,11,14,08,54,5.90
2007,11,14,08,55,5.90
2007,11,14,08,56,6.00
2007,11,14,08,57,6.00
2007,11,14,08,58,6.00
2007,11,14,08,59,6.00
2007,11,14,09,00,6.00
2007,11,14,09,01,6.00
2007,11,14,09,02,6.10
2007,11,14,09,03,6.10
2007,11,14,09,04,6.10
2007,11,14,09,05,6.10
2007,11,14,09,06,6.10
2007,11,14,09,07,6.20
2007,11,14,09,08,6.20
2007,11,14,09,09,6.20
2007,11,14,09,10,6.20
2007,11,14,09,11,6.20
2007,11,14,09,12,6.20
2007,11,14,09,13,6.20
2007,11,14,09,14,6.30
2007,11,14,09,15,6.30
2007,11,14,09,16,6.30
2007,11,14,09,17,6.30
2007,11,14,09,18,6.30
2007,11,14,09,19,6.30
2007,11,14,09,20,6.30
2007,11,14,09,21,6.30
2007,11,14,09,22,6.30
2007,11,14,09,23,6.30
2007,11,14,09,24,6.30
2007,11,14,09,25,6.30
2007,11,14,09,26,6.30
2007,11,14,09,27,6.30
2007,11,14,09,28,6.30
2007,11,14,09,29,6.30
2007,11,14,09,30,6.30
2007,11,14,09,31,6.40
2007,11,14,09,32,6.40
2007,11,14,09,33,6.40
2007,11,14,09,34,6.40
2007,11,14,09,35,6.40
2007,11,14,09,36,6.40
2007,11,14,09,37,6.40
2007,11,14,09,38,6.40
2007,11,14,09,39,6.40
2007,11,14,09,40,6.40
2007,11,14,09,41,6.50
2007,11,14,09,42,6.60
2007,11,14,09,43,6.60
2007,11,14,09,44,6.60
2007,11,14,09,45,6.60
2007,11,14,09,46,6.60
2007,11,14,09,47,6.60
2007,11,14,09,48,6.60
2007,11,14,09,49,6.60
2007,11,14,09,50,6.60
2007,11,14,09,51,6.60
2007,11,14,09,52,6.60
2007,11,14,09,53,6.60
2007,11,14,09,54,6.60
2007,11,14,09,55,6.70
2007,11,14,09,56,6.70
2007,11,14,09,57,6.70
2007,11,14,09,58,6.70
2007,11,14,09,59,6.70
2007,11,14,10,00,6.80
2007,11,14,10,01,6.80
2007,11,14,10,02,6.80
2007,11,14,10,03,6.80
2007,11,14,10,04,6.80
2007,11,14,10,05,6.80
2007,11,14,10,06,6.80
2007,11,14,10,07,6.80
2007,11,14,10,08,6.90
2007,11,14,10,09,6.90
2007,11,14,10,10,6.90
2007,11,14,10,11,6.90
2007,11,14,10,12,7.00
2007,11,14,10,13,7.00
2007,11,14,10,14,7.00
2007,11,14,10,15,7.00
2007,11,14,10,16,7.10
2007,11,14,10,17,7.10
2007,11,14,10,18,7.10
2007,11,14,10,19,7.10
2007,11,14,10,20,7.10
2007,11,14,10,21,7.10
2007,11,14,10,22,7.20
2007,11,14,10,23,7.20
2007,11,14,10,24,7.20
2007,11,14,10,25,7.20
2007,11,14,10,26,7.20
2007,11,14,10,27,7.20
2007,11,14,10,28,7.20
2007,11,14,10,29,7.20
2007,11,14,10,30,7.30
2007,11,14,10,31,7.30
2007,11,14,10,32,7.30
2007,11,14,10,33,7.30
2007,11,14,10,34,7.30
2007,11,14,10,35,7.30
2007,11,14,10,36,7.30
2007,11,14,10,37,7.30
2007,11,14,10,38,7.30
2007,11,14,10,39,7.30
2007,11,14,10,40,7.30
2007,11,14,10,41,7.30
2007,11,14,10,42,7.30
2007,11,14,10,43,7.30
2007,11,14,10,44,7.30
2007,11,14,10,45,7.30
2007,11,14,10,46,7.30
2007,11,14,10,47,7.30
2007,11,14,10,48,7.30
2007,11,14,10,49,7.30
2007,11,14,10,50,7.40
2007,11,14,10,51,7.40
2007,11,14,10,52,7.40
2007,11,14,10,53,7.40
2007,11,14,10,54,7.40
2007,11,14,10,55,7.30
2007,11,14,10,56,7.30
2007,11,14,10,57,7.30
2007,11,14,10,58,7.30
2007,11,14,10,59,7.30
2007,11,14,11,00,7.30
2007,11,14,11,01,7.30
2007,11,14,11,02,7.30
2007,11,14,11,03,7.30
2007,11,14,11,04,7.30
2007,11,14,11,05,7.30
2007,11,14,11,06,7.30
2007,11,14,11,07,7.30
2007,11,14,11,08,7.30
2007,11,14,11,09,7.30
2007,11,14,11,10,7.30
2007,11,14,11,11,7.40
2007,11,14,11,12,7.40
2007,11,14,11,13,7.40
2007,11,14,11,14,7.40
2007,11,14,11,15,7.40
2007,11,14,11,16,7.40
2007,11,14,11,17,7.40
2007,11,14,11,18,7.40
2007,11,14,11,19,7.40
2007,11,14,11,20,7.50
2007,11,14,11,21,7.50
2007,11,14,11,22,7.50
2007,11,14,11,23,7.60
2007,11,14,11,24,7.60
2007,11,14,11,25,7.60
2007,11,14,11,26,7.60
2007,11,14,11,27,7.60
2007,11,14,11,28,7.60
2007,11,14,11,29,7.60
2007,11,14,11,30,7.60
2007,11,14,11,31,7.60
2007,11,14,11,32,7.60
2007,11,14,11,33,7.60
2007,11,14,11,34,7.60
2007,11,14,11,35,7.60
2007,11,14,11,36,7.60
2007,11,14,11,37,7.60
2007,11,14,11,38,7.60
2007,11,14,11,39,7.60
2007,11,14,11,40,7.60
2007,11,14,11,41,7.60
2007,11,14,11,42,7.70
2007,11,14,11,43,7.70
2007,11,14,11,44,7.70
2007,11,14,11,45,7.70
2007,11,14,11,46,7.70
2007,11,14,11,47,7.70
2007,11,14,11,48,7.70
2007,11,14,11,49,7.70
2007,11,14,11,50,7.70
2007,11,14,11,51,7.80
2007,11,14,11,52,7.80
2007,11,14,11,53,7.80
2007,11,14,11,54,7.80
2007,11,14,11,55,7.80
2007,11,14,11,56,7.80
2007,11,14,11,57,7.80
2007,11,14,11,58,7.80
2007,11,14,11,59,7.80
2007,11,14,12,00,7.80
2007,11,14,12,01,7.80
2007,11,14,12,02,7.80
2007,11,14,12,03,7.80
2007,11,14,12,04,7.80
2007,11,14,12,05,7.80
2007,11,14,12,06,7.80
2007,11,14,12,07,7.80
2007,11,14,12,08,7.80
2007,11,14,12,09,7.80
2007,11,14,12,10,7.80
2007,11,14,12,11,7.80
2007,11,14,12,12,7.80
2007,11,14,12,13,7.80
2007,11,14,12,14,7.80
2007,11,14,12,15,7.80
2007,11,14,12,16,7.80
2007,11,14,12,17,7.80
2007,11,14,12,18,7.80
2007,11,14,12,19,7.80
2007,11,14,12,20,7.80
2007,11,14,12,21,7.80
2007,11,14,12,22,7.80
2007,11,14,12,23,7.80
2007,11,14,12,24,7.80
2007,11,14,12,25,7.90
2007,11,14,12,26,7.90
2007,11,14,12,27,7.90
2007,11,14,12,28,7.90
2007,11,14,12,29,7.90
2007,11,14,12,30,7.90
2007,11,14,12,31,7.90
2007,11,14,12,32,7.80
2007,11,14,12,33,7.80
2007,11,14,12,34,7.80
2007,11,14,12,35,7.80
2007,11,14,12,36,7.80
2007,11,14,12,37,7.80
2007,11,14,12,38,7.80
2007,11,14,12,39,7.80
2007,11,14,12,40,7.80
2007,11,14,12,41,7.80
2007,11,14,12,42,7.80
2007,11,14,12,43,7.80
2007,11,14,12,44,7.80
2007,11,14,12,45,7.80
2007,11,14,12,46,7.80
2007,11,14,12,47,7.80
2007,11,14,12,48,7.90
2007,11,14,12,49,7.90
2007,11,14,12,50,7.90
2007,11,14,12,51,7.90
2007,11,14,12,52,7.90
2007,11,14,12,53,7.90
2007,11,14,12,54,7.90
2007,11,14,12,55,7.90
2007,11,14,12,56,7.90
2007,11,14,12,57,7.90
2007,11,14,12,58,7.90
2007,11,14,12,59,7.90
2007,11,14,13,00,7.90
2007,11,14,13,01,7.90
2007,11,14,13,02,7.90
2007,11,14,13,03,7.90
2007,11,14,13,04,7.90
2007,11,14,13,05,7.90
2007,11,14,13,06,7.90
2007,11,14,13,07,7.90
2007,11,14,13,08,7.90
2007,11,14,13,09,7.90
2007,11,14,13,10,7.90
2007,11,14,13,11,7.90
2007,11,14,13,12,7.90
2007,11,14,13,13,7.90
2007,11,14,13,14,7.80
2007,11,14,13,15,7.80
2007,11,14,13,16,7.80
2007,11,14,13,17,7.80
2007,11,14,13,18,7.80
2007,11,14,13,19,7.80
2007,11,14,13,20,7.80
2007,11,14,13,21,7.90
2007,11,14,13,22,7.90
2007,11,14,13,23,7.90
2007,11,14,13,24,7.90
2007,11,14,13,25,7.90
2007,11,14,13,26,7.90
2007,11,14,13,27,7.90
2007,11,14,13,28,7.90
2007,11,14,13,29,7.90
2007,11,14,13,30,7.90
2007,11,14,13,31,7.90
2007,11,14,13,32,7.90
2007,11,14,13,33,7.90
2007,11,14,13,34,7.90
2007,11,14,13,35,8.00
2007,11,14,13,36,8.00
2007,11,14,13,37,8.00
2007,11,14,13,38,8.00
2007,11,14,13,39,8.00
2007,11,14,13,40,8.00
2007,11,14,13,41,8.00
2007,11,14,13,42,8.00
2007,11,14,13,43,8.00
2007,11,14,13,44,8.00
2007,11,14,13,45,8.00
2007,11,14,13,46,8.00
2007,11,14,13,47,8.00
2007,11,14,13,48,8.00
2007,11,14,13,49,8.00
2007,11,14,13,50,8.00
2007,11,14,13,51,8.00
2007,11,14,13,52,8.00
2007,11,14,13,53,8.00
2007,11,14,13,54,8.00
2007,11,14,13,55,8.00
2007,11,14,13,56,7.90
2007,11,14,13,57,7.90
2007,11,14,13,58,7.90
2007,11,14,13,59,7.90
2007,11,14,14,00,7.90
2007,11,14,14,01,7.90
2007,11,14,14,02,7.90
2007,11,14,14,03,7.90
2007,11,14,14,04,7.90
2007,11,14,14,05,7.90
2007,11,14,14,06,7.90
2007,11,14,14,07,7.90
2007,11,14,14,08,7.90
2007,11,14,14,09,7.90
2007,11,14,14,10,7.90
2007,11,14,14,11,7.90
2007,11,14,14,12,7.80
2007,11,14,14,13,7.90
2007,11,14,14,14,7.90
2007,11,14,14,15,7.90
2007,11,14,14,16,7.90
2007,11,14,14,17,7.90
2007,11,14,14,18,7.90
2007,11,14,14,19,7.90
2007,11,14,14,20,7.80
2007,11,14,14,21,7.80
2007,11,14,14,22,7.80
2007,11,14,14,23,7.80
2007,11,14,14,24,7.80
2007,11,14,14,25,7.80
2007,11,14,14,26,7.80
2007,11,14,14,27,7.80
2007,11,14,14,28,7.80
2007,11,14,14,29,7.80
2007,11,14,14,30,7.80
2007,11,14,14,31,7.80
2007,11,14,14,32,7.80
2007,11,14,14,33,7.80
2007,11,14,14,34,7.70
2007,11,14,14,35,7.80
2007,11,14,14,36,7.80
2007,11,14,14,37,7.80
2007,11,14,14,38,7.80
2007,11,14,14,39,7.80
2007,11,14,14,40,7.80
2007,11,14,14,41,7.70
2007,11,14,14,42,7.70
2007,11,14,14,43,7.70
2007,11,14,14,44,7.70
2007,11,14,14,45,7.80
2007,11,14,14,46,7.80
2007,11,14,14,47,7.80
2007,11,14,14,48,7.80
2007,11,14,14,49,7.80
2007,11,14,14,50,7.80
2007,11,14,14,51,7.80
2007,11,14,14,52,7.80
2007,11,14,14,53,7.80
2007,11,14,14,54,7.80
2007,11,14,14,55,7.80
2007,11,14,14,56,7.80
2007,11,14,14,57,7.80
2007,11,14,14,58,7.80
2007,11,14,14,59,7.80
2007,11,14,15,00,7.80
2007,11,14,15,01,7.80
2007,11,14,15,02,7.80
2007,11,14,15,03,7.80
2007,11,14,15,04,7.80
2007,11,14,15,05,7.80
2007,11,14,15,06,7.80
2007,11,14,15,07,7.80
2007,11,14,15,08,7.80
2007,11,14,15,09,7.90
2007,11,14,15,10,7.90
2007,11,14,15,11,7.90
2007,11,14,15,12,7.90
2007,11,14,15,13,7.90
2007,11,14,15,14,7.90
2007,11,14,15,15,7.90
2007,11,14,15,16,7.90
2007,11,14,15,17,7.90
2007,11,14,15,18,7.90
2007,11,14,15,19,7.90
2007,11,14,15,20,7.90
2007,11,14,15,21,7.90
2007,11,14,15,22,7.90
2007,11,14,15,23,7.90
2007,11,14,15,24,7.90
2007,11,14,15,25,7.90
2007,11,14,15,26,7.90
2007,11,14,15,27,7.90
2007,11,14,15,28,7.90
2007,11,14,15,29,7.90
2007,11,14,15,30,7.90
2007,11,14,15,31,7.80
2007,11,14,15,32,7.80
2007,11,14,15,33,7.80
2007,11,14,15,34,7.80
2007,11,14,15,35,7.80
2007,11,14,15,36,7.80
2007,11,14,15,37,7.80
2007,11,14,15,38,7.80
2007,11,14,15,39,7.80
2007,11,14,15,40,7.80
2007,11,14,15,41,7.80
2007,11,14,15,42,7.80
2007,11,14,15,43,7.80
2007,11,14,15,44,7.80
2007,11,14,15,45,7.90
2007,11,14,15,46,7.90
2007,11,14,15,47,7.90
2007,11,14,15,48,7.90
2007,11,14,15,49,7.90
2007,11,14,15,50,7.90
2007,11,14,15,51,7.90
2007,11,14,15,52,7.90
2007,11,14,15,53,7.90
2007,11,14,15,54,7.90
2007,11,14,15,55,7.90
2007,11,14,15,56,8.00
2007,11,14,15,57,8.00
2007,11,14,15,58,8.00
2007,11,14,15,59,8.00
2007,11,14,16,00,8.00
2007,11,14,16,01,8.10
2007,11,14,16,02,8.10
2007,11,14,16,03,8.10
2007,11,14,16,04,8.20
2007,11,14,16,05,8.20
2007,11,14,16,06,8.30
2007,11,14,16,07,8.40
2007,11,14,16,08,8.40
2007,11,14,16,09,8.40
2007,11,14,16,10,8.50
2007,11,14,16,11,8.50
2007,11,14,16,12,8.50
2007,11,14,16,13,8.50
2007,11,14,16,14,8.50
2007,11,14,16,15,8.50
2007,11,14,16,16,8.60
2007,11,14,16,17,8.70
2007,11,14,16,18,8.70
2007,11,14,16,19,8.70
2007,11,14,16,20,8.70
2007,11,14,16,21,8.80
2007,11,14,16,22,8.80
2007,11,14,16,23,8.90
2007,11,14,16,24,8.90
2007,11,14,16,25,9.00
2007,11,14,16,26,9.00
2007,11,14,16,27,9.00
2007,11,14,16,28,9.10
2007,11,14,16,29,9.20
2007,11,14,16,30,9.30
2007,11,14,16,31,9.40
2007,11,14,16,32,9.50
2007,11,14,16,33,9.60
2007,11,14,16,34,9.70
2007,11,14,16,35,9.70
2007,11,14,16,36,9.80
2007,11,14,16,37,9.90
2007,11,14,16,38,9.90
2007,11,14,16,39,9.90
2007,11,14,16,40,9.90
2007,11,14,16,41,9.90
2007,11,14,16,42,10.00
2007,11,14,16,43,10.10
2007,11,14,16,44,10.10
2007,11,14,16,45,10.10
2007,11,14,16,46,10.10
2007,11,14,16,47,9.90
2007,11,14,16,48,9.90
2007,11,14,16,49,9.90
2007,11,14,16,50,10.00
2007,11,14,16,51,10.10
2007,11,14,16,52,10.10
2007,11,14,16,53,10.10
2007,11,14,16,54,10.10
2007,11,14,16,55,10.10
2007,11,14,16,56,10.10
2007,11,14,16,57,10.10
2007,11,14,16,58,10.10
2007,11,14,16,59,10.10
2007,11,14,17,00,10.10
2007,11,14,17,01,10.10
2007,11,14,17,02,10.10
2007,11,14,17,03,10.10
2007,11,14,17,04,10.10
2007,11,14,17,05,10.10
2007,11,14,17,06,10.10
2007,11,14,17,07,10.10
2007,11,14,17,08,10.20
2007,11,14,17,09,10.20
2007,11,14,17,10,10.20
2007,11,14,17,11,10.30
2007,11,14,17,12,10.30
2007,11,14,17,13,10.30
2007,11,14,17,14,10.40
2007,11,14,17,15,10.40
2007,11,14,17,16,10.40
2007,11,14,17,17,10.40
2007,11,14,17,18,10.40
2007,11,14,17,19,10.40
2007,11,14,17,20,10.40
2007,11,14,17,21,10.40
2007,11,14,17,22,10.40
2007,11,14,17,23,10.40
2007,11,14,17,24,10.40
2007,11,14,17,25,10.40
2007,11,14,17,26,10.40
2007,11,14,17,27,10.60
2007,11,14,17,28,10.60
2007,11,14,17,29,10.60
2007,11,14,17,30,10.60
2007,11,14,17,31,10.60
2007,11,14,17,32,10.60
2007,11,14,17,33,10.60
2007,11,14,17,34,10.70
2007,11,14,17,35,10.70
2007,11,14,17,36,10.70
2007,11,14,17,37,10.70
2007,11,14,17,38,10.70
2007,11,14,17,39,10.70
2007,11,14,17,40,10.70
2007,11,14,17,41,10.60
2007,11,14,17,42,10.60
2007,11,14,17,43,10.50
2007,11,14,17,44,10.40
2007,11,14,17,45,10.30
2007,11,14,17,46,10.20
2007,11,14,17,47,10.10
2007,11,14,17,48,10.00
2007,11,14,17,49,9.90
2007,11,14,17,50,9.80
2007,11,14,17,51,9.70
2007,11,14,17,52,9.60
2007,11,14,17,53,9.50
2007,11,14,17,54,9.40
2007,11,14,17,55,9.40
2007,11,14,17,56,9.30
2007,11,14,17,57,9.20
2007,11,14,17,58,9.20
2007,11,14,17,59,9.20
2007,11,14,18,00,9.20
2007,11,14,18,01,9.10
2007,11,14,18,02,9.10
2007,11,14,18,03,9.10